EW9363 Weather Reports


time (UTC)temp
C
wind
direction
speed
KPH
gust
KPH
rain 1hr
cm
rain 24hr
cm
rain mn
cm
humidity
%
barometer
mb
20260503180754 21 279 3.2 11.3 0.00 0.03 0.00 44 1021.0
20260503180252 21 309 1.6 11.3 0.00 0.03 0.00 42 1021.1
20260503175752 21 218 1.6 9.7 0.00 0.03 0.00 45 1021.1
20260503175253 21 290 3.2 11.3 0.00 0.03 0.00 47 1021.2
20260503174753 21 286 3.2 12.9 0.00 0.05 0.00 44 1021.2
20260503174253 21 340 3.2 12.9 0.00 0.05 0.00 48 1021.3
20260503173751 21 148 3.2 12.9 0.00 0.05 0.00 43 1021.2
20260503173252 21 306 4.8 14.5 0.00 0.05 0.00 45 1021.3
20260503172753 21 346 3.2 14.5 0.00 0.05 0.00 46 1021.3
20260503172251 21 333 1.6 8.0 0.00 0.05 0.00 45 1021.3
20260503171752 21 307 1.6 8.0 0.00 0.05 0.00 47 1021.4
20260503171252 21 307 3.2 8.0 0.00 0.08 0.00 48 1021.5
20260503170752 20 312 1.6 8.0 0.00 0.08 0.00 49 1021.6
20260503170252 20 316 1.6 11.3 0.00 0.08 0.00 49 1021.6
20260503160138 19 30 1.6 6.4 0.00 0.15 0.00 51 1022.6
20260503150514 16 92 1.6 9.7 0.00 0.28 0.00 63 1022.8
20260503131348 8 74 3.2 8.0 0.00 0.79 0.00 95 1022.0
20260503131110 8 32 3.2 8.0 0.00 0.79 0.00 94 1022.0
20260503130345 8 75 1.6 8.0 0.00 0.79 0.00 95 1022.1
20260503110825 5 79 0.0 1.6 0.00 0.86 0.00 97 1020.8
20260503110545 5 79 0.0 3.2 0.00 0.86 0.00 97 1020.7
20260503090308 6 79 0.0 0.0 0.00 0.94 0.00 96 1019.3
20260503081248 6 79 0.0 0.0 0.00 0.97 0.00 96 1018.9
20260503080749 7 79 0.0 0.0 0.00 0.99 0.00 96 1018.8
20260503080510 7 79 0.0 0.0 0.00 0.99 0.00 95 1018.8
20260503072711 7 79 0.0 0.0 0.00 0.99 0.00 96 1018.4
20260503072205 7 79 0.0 0.0 0.00 0.99 0.00 96 1018.3
20260503071700 7 79 0.0 0.0 0.00 0.99 0.00 96 1018.2
20260503071415 7 79 0.0 0.0 0.00 0.99 0.00 96 1018.3
20260503070647 7 79 0.0 0.0 0.00 0.99 0.00 96 1018.2
20260503070141 7 79 0.0 0.0 0.00 0.99 0.00 96 1018.2
20260503060253 8 79 0.0 1.6 0.00 0.99 0.00 96 1017.8
20260503055018 8 79 0.0 0.0 0.00 0.99 0.00 96 1017.9
20260503054512 8 79 0.0 0.0 0.00 0.99 0.00 96 1017.9
20260503054005 8 79 0.0 0.0 0.00 0.99 0.00 96 1017.9
20260503053459 8 79 0.0 0.0 0.00 0.99 0.00 96 1018.0
20260503052953 8 79 0.0 0.0 0.00 0.99 0.00 96 1018.1
20260503052447 8 79 0.0 0.0 0.00 0.99 0.00 96 1018.0
20260503051942 8 79 0.0 0.0 0.00 0.99 0.00 96 1018.0
20260503051435 8 79 0.0 0.0 0.00 0.99 0.00 96 1017.8
20260503050929 8 79 0.0 0.0 0.00 0.99 0.00 96 1017.8
20260503050430 8 79 0.0 0.0 0.00 0.99 0.00 96 1017.8
20260503045929 8 79 0.0 0.0 0.00 0.99 0.00 96 1017.8
20260503045427 8 79 0.0 0.0 0.00 0.99 0.00 96 1017.7
20260503044926 8 79 0.0 0.0 0.00 0.99 0.00 96 1017.7
20260503044426 8 79 0.0 0.0 0.00 0.99 0.00 96 1017.6
20260503043927 8 79 0.0 0.0 0.00 0.99 0.00 96 1017.6
20260503043424 8 79 0.0 0.0 0.00 0.99 0.00 96 1017.6
20260503042923 8 79 0.0 0.0 0.00 0.99 0.00 96 1017.6
20260503042422 8 79 0.0 0.0 0.00 0.99 0.00 96 1017.7
20260503041920 8 79 0.0 0.0 0.00 0.99 0.00 96 1017.8
20260503041416 8 79 0.0 0.0 0.00 0.99 0.00 96 1017.8
20260503040914 8 79 0.0 0.0 0.00 0.99 0.00 96 1017.8
20260503040412 8 79 0.0 0.0 0.00 0.99 0.00 96 1017.6
20260503035911 9 79 0.0 0.0 0.00 0.99 0.99 96 1017.6
20260503035634 9 79 0.0 0.0 0.00 0.99 0.99 96 1017.5
20260503035136 9 79 0.0 0.0 0.00 0.99 0.99 96 1017.4
20260503034406 9 79 0.0 0.0 0.00 0.99 0.99 96 1017.4
20260503033904 9 79 0.0 0.0 0.00 0.99 0.99 96 1017.4
20260503033402 9 79 0.0 0.0 0.00 0.99 0.99 96 1017.4
20260503032900 9 79 0.0 0.0 0.00 0.99 0.99 96 1017.2
20260503032402 9 79 0.0 0.0 0.00 0.99 0.99 96 1017.2
20260503031901 9 79 0.0 0.0 0.00 0.99 0.99 96 1017.2
20260503031402 9 79 0.0 0.0 0.00 0.99 0.99 96 1017.0
20260503030902 9 79 0.0 0.0 0.00 0.99 0.99 96 1017.0
20260503030402 9 79 0.0 0.0 0.00 0.99 0.99 96 1017.1
20260503025859 9 79 0.0 0.0 0.00 0.99 0.99 96 1017.0
20260503025400 9 79 0.0 0.0 0.00 0.99 0.99 95 1016.8
20260503024900 9 79 0.0 0.0 0.00 0.99 0.99 95 1016.8
20260503024401 9 79 0.0 0.0 0.00 0.99 0.99 95 1016.7
20260503023859 9 79 0.0 0.0 0.00 0.99 0.99 95 1016.8
20260503023616 9 79 0.0 0.0 0.00 0.99 0.99 95 1016.8
20260503022859 9 79 0.0 0.0 0.00 0.99 0.99 95 1016.7
20260503022359 9 79 0.0 0.0 0.00 0.99 0.99 95 1016.5
20260503021859 9 79 0.0 0.0 0.00 0.99 0.99 95 1016.6
20260503021358 9 79 0.0 0.0 0.00 0.99 0.99 95 1016.4
20260503020900 10 79 0.0 0.0 0.00 0.99 0.99 95 1016.4
20260503020622 10 79 0.0 0.0 0.00 0.99 0.99 95 1016.4
20260503015857 10 79 0.0 0.0 0.00 0.99 0.99 95 1016.4
20260503015605 10 79 0.0 0.0 0.00 0.99 0.99 95 1016.3
20260503015445 10 79 0.0 0.0 0.00 0.99 0.99 95 1016.4
20260503014339 10 79 0.0 0.0 0.00 0.99 0.99 95 1016.3
20260503013833 10 79 0.0 0.0 0.00 0.99 0.99 95 1016.2
20260503013334 10 79 0.0 0.0 0.00 0.99 0.99 95 1016.2
20260503012834 10 79 0.0 0.0 0.00 0.99 0.99 94 1016.1
20260503012332 10 79 0.0 0.0 0.00 0.99 0.99 94 1015.9
20260503011832 10 79 0.0 0.0 0.00 0.99 0.99 95 1015.7
20260503011328 10 79 0.0 0.0 0.00 0.99 0.99 95 1015.7
20260503011054 10 79 0.0 0.0 0.00 0.99 0.99 94 1015.5
20260503010325 11 79 0.0 0.0 0.00 0.99 0.99 94 1015.4
20260503005823 11 79 0.0 0.0 0.00 0.99 0.99 95 1015.4
20260503005322 11 79 0.0 0.0 0.00 0.99 0.99 95 1015.2
20260503004823 11 79 0.0 0.0 0.00 0.99 0.99 95 1015.2
20260503004320 11 79 0.0 0.0 0.00 0.99 0.99 95 1015.2
20260503003819 11 79 0.0 0.0 0.00 0.99 0.99 95 1015.2
20260503003317 11 79 0.0 0.0 0.00 0.99 0.99 94 1015.2
20260503002815 11 79 0.0 0.0 0.00 0.99 0.99 94 1015.0
20260503002314 11 79 0.0 0.0 0.00 0.99 0.99 94 1014.9
20260503001810 11 79 0.0 0.0 0.00 0.99 0.99 94 1014.7
20260503001309 11 79 0.0 0.0 0.00 0.99 0.99 94 1014.7
20260503000806 11 79 0.0 0.0 0.00 0.99 0.99 94 1014.7
20260503000304 11 79 0.0 0.0 0.00 0.99 0.99 94 1014.7
20260502235805 11 79 0.0 4.8 0.00 0.99 0.99 94 1014.7
20260502234755 12 213 0.0 0.0 0.00 0.99 0.99 95 1014.6
20260502234247 12 213 0.0 0.0 0.00 0.99 0.99 94 1014.5
20260502233741 12 213 0.0 0.0 0.00 0.99 0.99 94 1014.5
20260502233235 12 17 0.0 0.0 0.00 0.99 0.99 94 1014.5
20260502232730 12 16 0.0 0.0 0.00 0.99 0.99 94 1014.4
20260502232223 12 13 0.0 0.0 0.00 0.99 0.99 95 1014.4
20260502231717 12 13 0.0 1.6 0.00 0.99 0.99 94 1014.4
20260502231436 12 13 0.0 4.8 0.00 0.99 0.99 95 1014.4
20260502230705 12 19 0.0 4.8 0.00 0.99 0.99 95 1014.4
20260502230200 12 70 0.0 3.2 0.00 0.99 0.99 95 1014.3
20260502225653 12 78 0.0 3.2 0.00 0.99 0.99 95 1014.3
20260502225148 12 107 0.0 4.8 0.00 0.99 0.99 95 1014.2
20260502224641 12 115 1.6 6.4 0.00 0.99 0.99 95 1014.3
20260502224136 12 89 1.6 6.4 0.00 0.99 0.99 95 1014.3
20260502223629 12 13 0.0 6.4 0.00 0.99 0.99 95 1014.3
20260502223123 12 84 1.6 6.4 0.00 0.99 0.99 95 1014.2
20260502222617 12 69 1.6 6.4 0.00 0.99 0.99 95 1014.2
20260502222111 12 61 1.6 4.8 0.00 0.99 0.99 95 1014.2
20260502221605 12 46 0.0 4.8 0.00 0.99 0.99 95 1014.3
20260502221059 12 24 0.0 4.8 0.00 0.99 0.99 95 1014.1
20260502220553 12 34 1.6 4.8 0.00 0.99 0.99 95 1014.1
20260502220047 12 36 1.6 6.4 0.00 0.99 0.99 94 1014.3
20260502215541 12 37 1.6 6.4 0.00 0.99 0.99 94 1014.2
20260502215035 12 84 1.6 6.4 0.00 0.99 0.99 95 1014.1
20260502214529 12 18 1.6 9.7 0.00 0.99 0.99 95 1014.1
20260502214024 12 305 1.6 9.7 0.00 0.99 0.99 95 1013.9
20260502213518 12 84 3.2 14.5 0.00 0.99 0.99 95 1013.8
20260502213011 12 81 3.2 14.5 0.00 0.99 0.99 95 1013.7
20260502212724 12 316 1.6 9.7 0.00 0.99 0.99 95 1013.7
20260502211959 12 40 3.2 9.7 0.00 0.99 0.99 95 1013.7
20260502211454 12 5 3.2 9.7 0.00 0.99 0.99 95 1013.8
20260502211207 12 30 1.6 6.4 0.00 0.99 0.99 95 1013.9
20260502210441 12 39 1.6 6.4 0.00 0.99 0.99 95 1013.8
20260502205935 12 62 1.6 9.7 0.00 0.99 0.99 95 1013.8
20260502205429 12 13 3.2 11.3 0.00 0.99 0.99 95 1013.9
20260502205138 12 11 3.2 8.0 0.00 0.99 0.99 96 1013.8
20260502204418 12 96 3.2 12.9 0.00 0.99 0.99 95 1013.9
20260502204142 12 66 1.6 14.5 0.00 0.99 0.99 95 1014.1
20260502203418 12 59 1.6 14.5 0.00 0.99 0.99 96 1014.1
20260502202917 12 341 1.6 9.7 0.00 0.99 0.99 95 1014.1
20260502202417 12 82 3.2 14.5 0.00 0.99 0.99 95 1014.1
20260502202145 12 71 3.2 14.5 0.00 0.99 0.99 94 1014.1
20260502201417 12 57 1.6 12.9 0.00 0.99 0.99 95 1014.0
20260502200919 12 55 1.6 6.4 0.00 0.99 0.99 95 1014.1
20260502200635 12 51 1.6 6.4 0.00 0.99 0.99 95 1014.1
20260502195916 12 44 1.6 8.0 0.00 0.99 0.99 95 1014.0
20260502195416 12 46 3.2 11.3 0.00 0.99 0.99 95 1013.8
20260502194916 12 61 1.6 11.3 0.00 0.99 0.99 95 1013.8
20260502194636 12 5 0.0 8.0 0.00 0.99 0.99 96 1013.7
20260502193918 12 34 1.6 8.0 0.00 0.99 0.99 96 1013.6
20260502193416 12 42 1.6 8.0 0.00 0.99 0.99 95 1013.7
20260502192915 12 69 1.6 8.0 0.00 0.99 0.99 96 1013.7
20260502192415 12 65 1.6 8.0 0.00 0.99 0.99 96 1013.6
20260502191921 12 60 1.6 6.4 0.00 0.99 0.99 95 1013.5
20260502191415 12 67 1.6 12.9 0.03 0.99 0.99 96 1013.5
20260502190916 12 192 1.6 12.9 0.03 0.99 0.99 97 1013.6
20260502190635 12 53 1.6 12.9 0.03 0.99 0.99 96 1013.5
20260502185915 12 70 1.6 12.9 0.03 0.99 0.99 96 1013.6
20260502185635 12 76 1.6 8.0 0.03 0.99 0.99 96 1013.7
20260502184917 12 350 1.6 6.4 0.05 0.99 0.99 97 1013.6
20260502184415 12 23 1.6 6.4 0.05 0.99 0.99 97 1013.7
20260502183915 12 92 1.6 6.4 0.05 0.99 0.99 97 1013.7
20260502183417 12 91 1.6 8.0 0.05 0.99 0.99 97 1013.9
20260502183139 12 86 0.0 8.0 0.05 0.99 0.99 97 1014.0
20260502182417 12 20 1.6 8.0 0.05 0.99 0.99 97 1013.9
20260502181913 12 9 1.6 9.7 0.05 0.99 0.99 97 1014.1
20260502181414 12 72 1.6 9.7 0.05 0.97 0.99 96 1014.0